Weather History for KPHX - May, 2013

Change the Weather History Date:

Sunday, May 12, 2013

  Actual Average Record
Temperature  
Mean Temperature 86 °F 81 °F  
Max Temperature 99 °F 94 °F 109 °F (1996)
Min Temperature 73 °F 68 °F 48 °F (1905)
Degree Days  
Heating Degree Days 0 0  
Month to date heating degree days 0 0  
Since 1 July heating degree days 881 934  
Cooling Degree Days 21 16  
Month to date cooling degree days 191 172  
Year to date cooling degree days 695 527  
Growing Degree Days 36 (Base 50)    
Moisture  
Dew Point 34 °F    
Average Humidity 18    
Maximum Humidity 25    
Minimum Humidity 10    
Precipitation  
Precipitation 0.00 in 0.01 in 0.22 in (1957)
Month to date precipitation 0.00 0.05  
Year to date precipitation 2.61 3.15  
Snow  
Snow 0.00 in - - ()
Month to date snowfall 0.0  
Year to date snowfall 0.0  
Since 1 July snowfall 0.0  
Snow Depth 0.00 in    
Sea Level Pressure  
Sea Level Pressure 29.95 in    
Wind  
Wind Speed 5 mph (East)    
Max Wind Speed 14 mph    
Max Gust Speed 18 mph    
Visibility 10 miles    
Events      
T = Trace of Precipitation, MM = Missing Value Source: NWS Daily Summary

Daily Weather History Graph

Daily Weather History Graph

Search for Another Location

Airport or City:

Trip Planner

Search our weather history database for the weather conditions in past years. The results will help you decide how hot, cold, wet, or windy it might be!

Date:

Astronomy

May. 12, 2013 Rise Set
Actual Time 5:29 AM MST 7:19 PM MST
Civil Twilight 5:02 AM MST 7:46 PM MST
Nautical Twilight 4:29 AM MST 8:19 PM MST
Astronomical Twilight 3:54 AM MST 8:54 PM MST
Moon 7:29 AM MST (5/12) 9:47 PM MST (5/12)
Length of Visible Light 14h 44m
Length of Day
13h 49m
Waxing Crescent, 7% of the Moon is Illuminated
May 12
Waxing Crescent
May 17
First Quarter
May 24
Full
May 31
Last Quarter
Jun 8
New

Hourly Weather History & Observations

Time (MST) Temp. Dew Point Humidity Pressure Visibility Wind Dir Wind Speed Gust Speed Precip Events Conditions
12:51 AM 81.0 °F 37.9 °F 21% 29.99 in 10.0 mi Calm Calm - N/A   Partly Cloudy
1:51 AM 81.0 °F 36.0 °F 20% 29.99 in 10.0 mi ESE 9.2 mph - N/A   Partly Cloudy
2:51 AM 77.0 °F 37.0 °F 24% 29.99 in 10.0 mi East 9.2 mph - N/A   Partly Cloudy
3:51 AM 77.0 °F 37.0 °F 24% 30.01 in 10.0 mi East 5.8 mph - N/A   Clear
4:51 AM 75.0 °F 37.0 °F 25% 30.02 in 10.0 mi East 8.1 mph - N/A   Partly Cloudy
5:51 AM 75.0 °F 37.0 °F 25% 30.04 in 10.0 mi East 4.6 mph - N/A   Partly Cloudy
6:51 AM 77.0 °F 37.0 °F 24% 30.06 in 10.0 mi East 5.8 mph - N/A   Partly Cloudy
7:51 AM 81.0 °F 37.0 °F 21% 30.06 in 10.0 mi ESE 6.9 mph - N/A   Clear
8:51 AM 84.9 °F 36.0 °F 17% 30.06 in 10.0 mi East 6.9 mph - N/A   Clear
9:51 AM 89.1 °F 36.0 °F 15% 30.05 in 10.0 mi SE 6.9 mph - N/A   Partly Cloudy
10:51 AM 91.0 °F 35.1 °F 14% 30.03 in 10.0 mi NE 5.8 mph - N/A   Scattered Clouds
11:51 AM 91.9 °F 33.1 °F 12% 30.00 in 10.0 mi North 5.8 mph - N/A   Scattered Clouds
12:51 PM 95.0 °F 34.0 °F 12% 29.97 in 10.0 mi South 6.9 mph - N/A   Scattered Clouds
1:51 PM 96.1 °F 32.0 °F 10% 29.94 in 10.0 mi Calm Calm - N/A   Scattered Clouds
2:51 PM 95.0 °F 30.9 °F 10% 29.91 in 10.0 mi Calm Calm - N/A   Partly Cloudy
3:51 PM 97.0 °F 30.0 °F 9% 29.88 in 10.0 mi West 9.2 mph - N/A   Partly Cloudy
4:51 PM 97.0 °F 30.0 °F 9% 29.85 in 10.0 mi North 9.2 mph - N/A   Scattered Clouds
5:51 PM 97.0 °F 30.0 °F 9% 29.83 in 10.0 mi Calm Calm - N/A   Scattered Clouds
6:51 PM 96.1 °F 30.9 °F 10% 29.83 in 10.0 mi West 9.2 mph - N/A   Partly Cloudy
7:51 PM 93.0 °F 30.9 °F 11% 29.84 in 10.0 mi WSW 4.6 mph - N/A   Partly Cloudy
8:51 PM 91.0 °F 33.1 °F 13% 29.85 in 10.0 mi Calm Calm - N/A   Clear
9:51 PM 90.0 °F 33.1 °F 13% 29.87 in 10.0 mi Calm Calm - N/A   Clear
10:51 PM 86.0 °F 36.0 °F 17% 29.88 in 10.0 mi Calm Calm - N/A   Clear
11:51 PM 82.9 °F 37.0 °F 19% 29.89 in 10.0 mi Variable 3.5 mph - N/A   Clear